Regional Weather Roundup
Issued by NWS

Home | Current Version | Previous Version | Graphics & Text | Print | Product List | Glossary On
Versions: 1 2 3 4 5 6 7 8 9 10 11 12 13 14 15 16 17 18 19 20 21 22 23 24 25 26 27 28 29 30 31 32 33 34 35 36 37 38 39 40 41 42 43 44 45 46 47 48 49 50
000
ASUS45 KBOU 160707
RWRCO

WEATHER ROUNDUP FOR COLORADO
NATIONAL WEATHER SERVICE DENVER/BOULDER CO
100 AM MDT TUE SEP 16 2014

NOTE: "FAIR" INDICATES FEW OR NO CLOUDS BELOW 12000 FEET WITH NO
SIGNIFICANT WEATHER AND/OR OBSTRUCTIONS TO VISIBILITY.

COZ001>005-013-030-031-160800-
...NORTHWEST COLORADO...

CITY           SKY/WX    TMP DP  RH WIND       PRES   REMARKS
CRAIG          CLEAR     46  39  76 CALM      30.28S
HAYDEN         CLEAR     54  37  54 E13       30.29S
MEEKER         CLEAR     53  39  59 E3        30.30S
MOUNT WERNER   NOT AVBL
STEAMBOAT SPGS CLEAR     50  38  63 CALM      30.32S
WALDEN         PTCLDY    41  32  70 SE10      30.39S
$$

COZ006>008-011-160800-
...WEST CENTRAL VALLEYS...

CITY           SKY/WX    TMP DP  RH WIND       PRES   REMARKS
GRAND JUNCTION CLEAR     62  42  47 E6        30.17R
MONTROSE       CLEAR     61  39  44 SE9       30.27R
EAGLE          CLEAR     50  39  66 CALM      30.36R
RIFLE          CLEAR     54  41  61 CALM      30.25S
DELTA          CLEAR     61  41  49 E5        30.22S
NUCLA          CLEAR     61  37  41 SE6       30.29S
$$

COZ017>023-064>068-160800-
...SOUTHWEST COLORADO...

CITY           SKY/WX    TMP DP  RH WIND       PRES   REMARKS
DURANGO        CLEAR     53  39  59 NE5       30.36R
CORTEZ         CLEAR     58  44  60 E5        30.29R
PAGOSA SPRINGS CLEAR     55  38  53 CALM      30.44R
TELLURIDE      NOT AVBL
WOLF CREEK PAS PTCLDY    43  36  75 SW18      30.69S
$$

COZ009-010-012-014-032>034-037-058>063-160800-
...CENTRAL COLORADO...

CITY           SKY/WX    TMP DP  RH WIND       PRES   REMARKS
ASPEN          CLEAR     49  36  61 SW6       30.40S
BUENA VISTA    CLEAR     45  39  81 W3        30.45S
COPPER MTN     CLEAR     48  30  49 SW10      30.68S
BERTHOUD PASS  FAIR      39  37  93 W10       30.71S
COTTONWOOD PAS CLEAR     52  36  54 W5        30.55F
GUNNISON       CLEAR     48  34  57 N6        30.44R
KREMMLING      CLEAR     43  34  70 CALM      30.40S
LEADVILLE      CLEAR     41  35  79 NE5       30.55S
MONARCH PASS   PTCLDY    45  34  65 S9        30.78F
SALIDA         CLEAR     51  45  79 CALM      30.50S
SUNLIGHT       CLEAR     54  30  40 CALM      30.61S
WILKERSON PASS NOT AVBL
$$

COZ069>075-160800-
...SAN LUIS VALLEY/SANGRE DE CRISTO MOUNTAINS...

CITY           SKY/WX    TMP DP  RH WIND       PRES   REMARKS
ALAMOSA        PTCLDY    49  43  80 E6        30.42S
LA VETA PASS   NOT AVBL
SAGUACHE       NOT AVBL
$$

COZ035-036-038>040-160800-
...NORTHERN COLORADO FRONT RANGE...

CITY           SKY/WX    TMP DP  RH WIND       PRES   REMARKS
DENVER INTL AP CLEAR     55  48  77 S6        30.22F
DMNS CITY PARK   N/A     54  53  95 S1        30.21S
AURORA         CLEAR     57  49  75 S14       30.23F
FRONT RANGE AP CLEAR     55  50  82 S5        30.23F
ERIE MUNI ARPT CLEAR     50  48  92 CALM      30.21F
BOULDER MUN AP CLEAR     54  50  87 CALM      30.21F
CENTENNIAL     CLEAR     55  49  80 S13       30.25F
BROOMFIELD     CLEAR     61  45  55 CALM      30.23F
FORT COLLINS   CLEAR     52  46  82 N3        30.22F
LONGMONT       CLEAR     51  47  84 CALM      30.22F
$$

COZ041-046-047-076>085-087-088-160800-
...PIKES PEAK/PALMER DIVIDE AND SOUTHERN FOOTHILLS...

CITY           SKY/WX    TMP DP  RH WIND       PRES   REMARKS
COLO. SPRINGS  CLOUDY    53  51  93 S8        30.35F FOG
A. F. ACADEMY  CLOUDY    52  51  96 S6        30.35F
ELLICOTT       NOT AVBL
FALCON         FOG       51  50  99 SW10      30.37F VSB 1/4
FORT CARSON    CLOUDY    53  53  99 SE8       30.33F
LIMON          CLOUDY    53  51  93 S12G21    30.30F
MONUMENT HILL  CLOUDY    48  46  93 S15       30.34S FOG
TRINIDAD       MOCLDY    52  50  93 W3        30.33S
$$

COZ042>045-048>051-090-091-160800-
...NORTHEAST COLORADO...

CITY           SKY/WX    TMP DP  RH WIND       PRES   REMARKS
GREELEY ARPT   CLEAR     48  43  81 NW6       30.21S
AKRON          CLEAR     53  50  89 S10       30.22F
BURLINGTON     CLOUDY    59  51  75 S14       30.26F
WRAY           CLEAR     54  51  90 S6        30.23F
STERLING       CLEAR     55  54  94 S8        30.17F
HOLYOKE        CLEAR     52  48  87 SE5       30.22F
FORT MORGAN    CLEAR     52  49  92 CALM      30.20S
$$

COZ086-089-092>099-160800-
...SOUTHEAST COLORADO...

CITY           SKY/WX    TMP DP  RH WIND       PRES   REMARKS
PUEBLO         CLEAR     54  51  90 NE5       30.29F
LA JUNTA       CLOUDY    60  52  74 SE8       30.28F
LAMAR          CLOUDY    60  53  77 S7        30.26F
SPRINGFIELD      N/A     55  54  96 S6        30.31S
$$


USA.gov is the U.S. government's official web portal to all federal, state and local government web resources and services.